Location: Gull Harbor
(47.1000°N, 122.9000°W)
Time: 22:13:17
(UTC-08:00)

ISS - Visible Passes

Search period start: 23 January 2019 00:00
Search period end: 02 February 2019 00:00
Orbit: 404 x 410 km, 51.6° (Epoch: 24 January)

Date Brightness Start Highest point End Pass type
(mag) Time Alt. Az. Time Alt. Az. Time Alt. Az.
23 Jan -3.1 18:54:44 10° SW 18:57:29 41° S 18:57:29 41° S visible
24 Jan -2.5 18:03:49 10° SSW 18:06:39 26° SE 18:08:26 17° E visible
24 Jan -1.4 19:39:43 10° WSW 19:41:09 23° W 19:41:09 23° W visible
25 Jan -3.9 18:48:18 10° WSW 18:51:36 87° SSE 18:52:01 66° ENE visible
26 Jan -3.5 17:57:01 10° SW 18:00:15 55° SSE 18:02:49 15° ENE visible
26 Jan -1.7 19:33:42 10° W 19:35:32 27° WNW 19:35:32 27° WNW visible
27 Jan -3.4 18:42:08 10° W 18:45:24 55° NNW 18:46:17 39° NE visible
28 Jan -3.8 17:50:38 10° WSW 17:53:56 78° NNW 17:57:00 12° ENE visible
28 Jan -2.0 19:27:40 10° WNW 19:29:43 28° NW 19:29:43 28° NW visible
29 Jan -2.9 18:36:04 10° W 18:39:13 40° N 18:40:23 28° NE visible
29 Jan -0.3 20:13:02 10° WNW 20:13:06 10° WNW 20:13:06 10° WNW visible
30 Jan -3.2 17:44:27 10° W 17:47:40 49° NNW 17:50:55 10° ENE visible
30 Jan -2.2 19:21:31 10° WNW 19:23:46 30° NNW 19:23:46 30° NNW visible
31 Jan -2.8 18:29:57 10° WNW 18:33:02 35° N 18:34:25 24° NE visible
31 Jan -0.6 20:06:41 10° WNW 20:07:08 13° WNW 20:07:08 13° WNW visible
01 Feb -2.8 19:15:13 10° WNW 19:17:48 39° NNW 19:17:48 39° NNW visible
